Weather observations for the past three days for
Brainerd - Crow Wing County Airport
Imperial (Metric)
Date Time (cdt) Wind (mph) Vis. (mi.) Weather Sky Cond. Temperature (ºF) Relative Humidity Wind Chill (°F) Heat Index (°F) Pressure Precipitation (in)
Air Dwpt 6 hour altimeter (in) sea level (mb) 1 hr 3 hr 6 hr
Max. Min.
20 17:53 Vrbl 6 10.00 Fair CLR 70 51.1 51% 30.3 1026.1
20 16:53 Vrbl 6 10.00 Fair CLR 70 50 49% 30.3 1026.0
20 15:53 Vrbl 5 10.00 Overcast OVC090 69.1 50 51% 30.33 1027.0
20 14:53 Vrbl 5 10.00 Overcast BKN075 OVC090 66.9 51.1 57% 30.36 1028.2
20 13:53 SE 6 10.00 Overcast OVC080 66 50 56% 30.37 1028.6
20 12:53 SE 7 10.00 Overcast OVC070 66 52 66 59 61% 30.37 1028.5
20 11:53 S 7 10.00 Overcast OVC075 66 52 61% 30.39 1029.1
20 10:53 Vrbl 5 10.00 Partly Cloudy SCT080 SCT100 66 54 65% 30.38 1029.0
20 09:53 SE 3 10.00 Overcast OVC090 63 55.9 78% 30.38 1028.9
20 08:53 Calm 10.00 Overcast FEW044 OVC100 62.1 55.9 80% 30.37 1028.7
20 07:53 SE 3 10.00 Mostly Cloudy BKN095 BKN110 60.1 55 84% 30.39 1029.1
20 06:53 Calm 10.00 Light Rain OVC100 59 54 60.1 57 83% 30.39 1029.1
20 05:53 E 3 10.00 Overcast OVC100 59 53.1 81% 30.37 1028.3
20 04:53 Calm 10.00 Fair CLR 59 53.1 81% 30.37 1028.4
20 03:53 SE 3 10.00 Mostly Cloudy BKN120 59 53.1 81% 30.37 1028.4
20 02:53 SE 3 10.00 Overcast OVC110 57.9 55 90% 30.37 1028.6
20 01:53 Calm 10.00 Mostly Cloudy BKN110 57.9 54 87% 30.37 1028.5
20 00:53 Calm 10.00 Fair CLR 57 54 70 57 90% 30.36 1028.1
19 23:53 Calm 10.00 Fair CLR 59 54 83% 30.35 1027.8
19 22:53 Calm 10.00 Fair CLR 57.9 52 81% 30.35 1027.9
19 21:53 Calm 10.00 Fair CLR 59 52 78% 30.33 1027.3
19 20:53 Calm 10.00 Fair CLR 62.1 53.1 73% 30.32 1026.8
19 19:53 NE 3 10.00 Fair CLR 69.1 48.9 49% 30.3 1026.1
19 18:53 E 3 10.00 Fair CLR 70 48 70 63 46% 30.3 1026.0
19 17:53 N 3 10.00 Fair CLR 70 48 46% 30.3 1026.2
19 16:53 Calm 10.00 Fair CLR 69.1 48 47% 30.3 1026.1
19 15:53 N 7 10.00 Mostly Cloudy BKN055 68 50 53% 30.3 1026.2
19 14:53 NE 7 10.00 Overcast BKN039 OVC049 66 50 56% 30.31 1026.3
19 13:53 Calm 10.00 Overcast BKN036 OVC047 64.9 48 54% 30.3 1026.1
19 12:53 N 3 10.00 Overcast OVC042 64 48 64.9 57 56% 30.29 1025.7
19 11:53 NW 9 10.00 Mostly Cloudy BKN040 64 46.9 54% 30.27 1025.1
19 10:53 NW 13 10.00 A Few Clouds FEW027 63 48 58% 30.25 1024.4
19 09:53 NW 9 10.00 Partly Cloudy SCT024 61 48.9 65% 30.22 1023.4
19 08:53 NW 10 10.00 Partly Cloudy SCT019 57.9 48 70% 30.2 1022.6
19 07:53 N 13 10.00 Mostly Cloudy BKN029 57.9 48.9 72% 30.16 1021.4
19 06:53 W 13 G 18 10.00 Overcast BKN017 OVC034 59 53.1 63 57.9 81% 30.12 1019.8
19 05:53 W 9 10.00 Overcast BKN016 OVC025 57.9 53.1 84% 30.07 1018.2
19 04:53 W 12 10.00 Overcast OVC027 59 53.1 81% 30.02 1016.2
19 03:53 W 14 G 28 10.00 Overcast SCT019 OVC024 60.1 54 80% 29.99 1015.0
19 02:53 W 9 8.00 Overcast BKN010 OVC016 60.1 57.9 93% 29.94 1013.6
19 01:53 W 14 G 23 10.00 Overcast OVC009 62.1 57.9 86% 29.9 1012.1
19 00:53 W 9 10.00 Overcast OVC009 63 60.1 68 63 90% 29.87 1011.0 0.09
18 23:53 W 8 10.00 Overcast OVC012 64 61 90% 29.85 1010.4
18 22:53 W 8 10.00 Overcast BKN012 OVC027 64 61 90% 29.81 1009.3
18 21:53 NW 13 10.00 Light Rain BKN009 BKN013 OVC022 64 61 90% 29.76 1007.6 0.09
18 20:53 NW 12 10.00 Light Rain OVC010 64.9 63 93% 29.7 1005.5 0.01
18 19:53 N 9 10.00 Overcast BKN008 BKN050 OVC090 68 64.9 90% 29.64 1003.2 0.08
18 18:53 W 5 6.00 Thunderstorm Light Rain Fog/Mist FEW009 BKN060 OVC110 68 66 81 68 93% 29.65 1003.4 0.39 0.39
18 17:53 N 18 G 23 10.00 Thunderstorm in Vicinity Light Rain FEW010 BKN018 OVC023 70 64.9 84% 29.58 1001.0
18 16:53 S 14 G 33 8.00 Overcast SCT028 BKN036 OVC047 81 73 77% 86 29.55 1000.0
18 15:53 S 17 G 35 8.00 Overcast FEW021 BKN028 OVC034 79 73 82% 82 29.55 1000.2
18 14:53 S 23 G 38 8.00 Overcast and Breezy FEW019 BKN031 OVC070 80.1 73 79% 84 29.55 1000.1
18 13:53 S 16 G 35 6.00 Light Rain FEW016 BKN031 OVC039 78.1 72 82% 80 29.56 1000.4
18 12:53 S 12 8.00 Overcast OVC023 75.9 71.1 75.9 66 85% 76 29.57 1000.7 0.74
18 11:53 SE 7 7.00 Overcast OVC020 71.1 66.9 87% 29.58 1001.4
18 10:53 SE 7 10.00 Overcast BKN030 OVC035 69.1 64.9 87% 29.59 1001.7
18 09:53 E 6 9.00 Light Rain SCT040 OVC060 66.9 64 91% 29.61 1002.3 0.21 0.74
18 08:53 N 15 G 21 2.00 Heavy Rain Fog/Mist SCT022 SCT033 OVC049 66.9 64 91% 29.62 1002.9 0.43
18 07:53 NW 9 2.50 Light Rain Fog/Mist FEW013 OVC022 66.9 64 91% 29.61 1002.2 0.1
18 06:53 W 15 G 37 8.00 Overcast FEW019 BKN037 OVC048 73.9 66.9 73.9 64 79% 29.61 1002.3 0.11
18 05:53 S 14 8.00 Mostly Cloudy BKN065 BKN085 71.1 66 84% 29.55 1000.3
18 04:53 SE 16 G 35 10.00 Fair CLR 70 64.9 84% 29.53 999.5
18 03:53 E 10 G 23 10.00 Overcast SCT022 BKN027 OVC065 66.9 63 87% 29.6 1002.0 0.11
18 02:53 SE 12 G 23 10.00 Thunderstorm in Vicinity FEW007 BKN041 OVC050 66 63 90% 29.57 1000.9 0.03
18 01:53 SE 22 G 41 3.00 Thunderstorm Light Rain Fog/Mist and Breezy FEW009 SCT085 BKN110 69.1 66 90% 29.61 1002.4 0.08
18 00:53 SE 7 6.00 Rain Fog/Mist BKN120 64.9 61 68 63 87% 29.66 1004.2 0.03 0.05
17 23:53 E 6 10.00 Light Rain FEW010 SCT042 BKN110 64 60.1 87% 29.71 1005.9 0.02
17 22:53 Vrbl 7 10.00 Partly Cloudy FEW055 SCT100 64 59 84% 29.75 1007.1
17 21:53 SE 6 10.00 Fair CLR 64 57.9 81% 29.78 1008.3
17 20:53 E 7 10.00 Fair CLR 64.9 57 76% 29.76 1007.6
17 19:53 SE 8 10.00 Fair CLR 66.9 55.9 68% 29.79 1008.8
17 18:53 Vrbl 7 10.00 Fair CLR 66.9 55.9 70 64.9 68% 29.79 1008.7
Date Time (cdt) Wind (mph) Vis. (mi.) Weather Sky Cond. Air Dwpt Max. Min. Relative Humidity Wind Chill (°F) Heat Index (°F) altimeter (in) sea level (mb) 1 hr 3 hr 6 hr
6 hour
Temperature (ºF) Pressure Precipitation (in)